Regional Weather Roundup
Issued by NWS

Home | Current Version | Previous Version | Text Only | Print | Product List | Glossary On
Versions: 1 2 3 4 5 6 7 8 9 10 11 12 13 14 15 16 17 18 19 20 21 22 23 24 25 26 27 28 29 30 31 32 33 34 35 36 37 38 39 40 41 42 43 44 45 46 47 48 49 50
000
ASCA42 TJSJ 250610
RWRPR
PUERTO RICO/U.S. VIRGIN ISLANDS HOURLY WEATHER ROUNDUP
NATIONAL WEATHER SERVICE SAN JUAN PR
200 AM AST SAT NOV 25 2017

PRZ001>002-007>008-010-250700-
PUERTO RICO

CITY           SKY/WX    TMP DP  RH WIND       PRES   REMARKS
SAN JUAN LMM   PTCLDY    81  77  89 CALM      29.95F
PONCE          PTCLDY    73  73 100 CALM      30.00S
AGUADILLA      CLEAR     75  72  88 SE5       29.97F
$$

VIZ001>002-250700-
U.S. VIRGIN ISLANDS

CITY           SKY/WX    TMP DP  RH WIND       PRES   REMARKS
CHARLOTTE AMA    N/A    N/A N/A N/A MISG      29.96F
$$

HOURLY WEATHER ROUNDUP FOR THE NEWS MEDIA

CITY           SKY/WX    TMP DP  RH WIND       PRES   REMARKS
ORLANDO        CLEAR     59  58  96 NW5       29.98S
NEW YORK       CLEAR     41  35  79 SW9       29.94F
NEWARK         CLEAR     38  26  62 SW6       29.92F WCI  33
CHICAGO        CLOUDY    55  41  59 NW14      29.59R
HARTFORD       CLEAR     31  29  92 CALM      29.91F
BOSTON         CLEAR     40  34  79 SW8       29.89  WCI  34
DALLAS         CLEAR     60  38  43 SE14      29.84R
PHILADELPHIA   CLEAR     39  32  76 SW5       29.94F
LOS ANGELES    PTCLDY    69  53  56 SE7       29.92R
WASHINGTON DC  CLEAR     37  29  72 S3        29.90F


USA.gov is the U.S. government's official web portal to all federal, state and local government web resources and services.